Torna al catalogo

STARLINK-31830

AttivoComunicazioniVLEO
NORAD 59769·PAYLOAD·🇺🇸 United States

Lanciato May 14, 2024 da Vandenberg Space Force Base

Loading…

Prossimi Passaggi (prossime 24 ore)

TLE

AggiornatoSource: CelesTrak SupGP

Epoca: Sep 15, 2026, 01:51 UTC

1 59769C 24091S   26258.07756944 -.00053610  00000+0 -15838-2 0  2588
2 59769  53.1589 226.8190 0001326  88.8957 352.0465 15.34420196    15

Traccia STARLINK-31830 in tempo reale con AllMySat

Download on the App Store